Location: Casilda
(33.0440°S, 61.1680°W)
Time: 14:09:21
(UTC-03:00)

ISS - Pass Details

Date: 22 July 2021
Orbit: 419 x 421 km, 51.6° (Epoch: 04 August)

Event Time Altitude Azimuth Distance (km) Brightness Sun altitude
Exits shadow 07:04:17 20° 261° (W) 1,035 -2.4 -12.2°
Maximum altitude 07:05:47 29° 218° (SW) 815 -2.7 -11.9°
Drops below altitude 10° 07:08:50 10° 155° (SSE) 1,525 -0.8 -11.3°
Sets 07:11:08 0° 143° (SE) 2,397 0.4 -10.9°
